ARIANE 2 DEB

基本信息
目录编号:
33582
目录名称:
ARIANE 2 DEB
国际标识:
1989-006CA
轨道中心:
EARTH
物体状态:
在轨
发射日期:
1989-01-27 UTC
轨道信息
数据来源: 国际轨道数据
星历时间: 2025-07-05T09:38:25+0800
半长轴: 26346.166km
偏心率: 0.595679
轨道倾角: 8.400°
近地点辐角: 343.006°
升交点赤经: 346.161°
平近点角: 3.356°
近地点: 4274.173km
远地点: 35661.889km
周期: 709.310分钟
每日圈数: 2.030143
详细信息
发射场:
FRGUI
轨道高度:
MEO
数据来源:
AOE Integration Group
参考系:
TEME
时间系统:
UTC
历元类型:
SGP4
2D轨道图
3D轨道图
轨道高度分析图
轨道倾角分析图
轨道综合分析图
查看轨道综合分析图